[Date Prev][Date Next][Thread Prev][Thread Next] - [Date Index][Thread Index][Author Index]
2 Line ISS Keps 5-15
- Subject: [sarex] 2 Line ISS Keps 5-15
- From: "Dave Larsen PhD" <doc@xxxxxxxxxxx>
- Date: Wed, 15 May 2002 03:02:18 -0700
ISS
1 25544U 98067A 02135.20405884 .00043497 00000-0 53419-3 0 4461
2 25544 51.6365 218.7599 0008293 65.3731 334.6541 15.59811268198882
----
Via the sarex mailing list at AMSAT.ORG courtesy of AMSAT-NA.
To unsubscribe, send "unsubscribe sarex" to Majordomo@amsat.org
AMSAT Home